Back to catalog

BLOCK DM-SL R/B

AliveHEO
NORAD 32730·ROCKET BODY· XX

Launched Mar 19, 2008 from Sea Launch Platform

Loading…

Next Passes (next 24 hours)

TLE

FreshSource: Space-Track

Epoch: Sep 14, 2026, 10:44 UTC

1 32730U 08013B   26257.44780831  .02051973 -10874-5  46098-3 0  9997
2 32730   0.5022 179.0826 4316467 254.9493 328.3490  7.10261705210186

Track BLOCK DM-SL R/B in real time with AllMySat

Download on the App Store